Regional Weather Roundup
Issued by NWS Memphis, TN

Home | Current Version | Previous Version | Text Only | Print | Product List | Glossary On
Versions: 1 2 3 4 5 6 7 8 9 10 11 12 13 14 15 16 17 18 19 20 21 22 23 24 25 26 27 28 29 30 31 32 33 34 35 36 37 38 39 40 41 42 43 44 45 46 47 48 49 50
000
ASUS44 KMEG 281600
RWRMEG
MEMPHIS CWA HOURLY WEATHER ROUNDUP
NATIONAL WEATHER SERVICE MEMPHIS TN
1100 AM CDT TUE APR 28 2015

...WEST TENNESSEE...

CITY           SKY/WX    TMP DP  RH WIND       PRES   REMARKS
MEMPHIS INTL   CLOUDY    59  43  55 VRB5      30.04R
NWS MEMPHIS      N/A     57 N/A N/A MISG        N/A
JACKSON        NOT AVBL
LEXINGTON      SUNNY     61  43  51 E10       29.98F
DYERSBURG      CLOUDY    57  36  44 NE8       30.04S
PARIS          SUNNY     55  43  62 NE9       30.03F


...EASTERN ARKANSAS...

CITY           SKY/WX    TMP DP  RH WIND       PRES   REMARKS
JONESBORO      CLOUDY    54  43  66 NE10      30.07R
BATESVILLE     CLOUDY    54  39  58 N6        30.08S
WALNUT RIDGE   CLOUDY    55  39  54 N12       30.08R
BLYTHEVILLE    CLOUDY    57  45  64 NE12      30.05R
STUTTGART      CLOUDY    55  45  67 N15G24    30.02R
PINE BLUFF     CLOUDY    56  47  71 N13       30.01R
MONTICELLO     CLOUDY    60  47  61 N8        29.97S


...NORTH MISSISSIPPI...

CITY           SKY/WX    TMP DP  RH WIND       PRES   REMARKS
TUPELO         CLOUDY    60  42  51 N7        29.95S
OLIVE BRANCH   PTSUNNY   55  46  71 N7        30.02R
TUNICA         CLOUDY    54  45  71 N14       30.01F
GREENWOOD      LGT RAIN  55  46  71 N9        29.95R
COLUMBUS       CLOUDY    63  46  52 N7        29.90F
STARKVILLE     PTSUNNY   59  46  63 NW6       29.93R
GOLDEN TRIANGL SUNNY     61  45  55 NE8       29.91R


...SOUTHEAST MISSOURI...

CITY           SKY/WX    TMP DP  RH WIND       PRES   REMARKS
WEST PLAINS    CLOUDY    56  39  53 NE8       30.10F
POPLAR BLUFF   CLOUDY    57  40  52 NE12      30.08R
CAPE GIRARDEAU PTSUNNY   58  42  55 NE13G21   30.09R


...NORTHWEST ALABAMA...

CITY           SKY/WX    TMP DP  RH WIND       PRES   REMARKS
MUSCLE SHOALS  PTSUNNY   62  42  47 NE8       29.95F


...MIDDLE TENNESSEE...

CITY           SKY/WX    TMP DP  RH WIND       PRES   REMARKS
CLARKSVILLE    MOSUNNY   59  41  51 NE12      30.04S
COLUMBIA       SUNNY     63  32  31 NE8       29.96F


...WESTERN KENTUCKY...

CITY           SKY/WX    TMP DP  RH WIND       PRES   REMARKS
PADUCAH        PTSUNNY   59  39  47 NE13      30.07R
FORT CAMPBELL  MOSUNNY   58  42  56 NE12      30.04S


...CENTRAL ARKANSAS...

CITY           SKY/WX    TMP DP  RH WIND       PRES   REMARKS


SKY/WX REPORTED AS FAIR MEANS FEW OR NO CLOUDS BELOW
12 THOUSAND FEET.




USA.gov is the U.S. government's official web portal to all federal, state and local government web resources and services.